Wind_Speed
17 18 17 14 13 10 6 2 1 0 1 2 3 1 1 2 1 1 2 2 1 1 2 4 6 5 4 4 7 7 4 1 2 3 1 6 19 21 18 25 26 25 27 26 26 24 24 27 27 28 26 27 27 27 27 27 28 28 27 26 26 26 24 21 19 19 20 20 19 19 18 17 16 15 14 13 13 12 12 12 12 11 11 11 10 10 10 10 10 10 9 9 8 7 7 7 7
18 18 16 13 10 6 1 0 1 1 1 2 3 1 2 1 1 1 4 3 1 4 5 6 8 7 7 8 8 5 4 4 2 3 3 16 23 17 23 28 27 26 27 26 27 26 26 26 26 27 27 28 28 27 27 27 28 27 26 26 25 25 22 20 20 20 20 19 19 18 17 16 15 14 13 13 12 11 11 11 11 10 10 10 9 9 9 10 10 10 10 9 8 7 7 6 5
19 18 17 12 6 2 1 0 0 0 1 2 3 2 1 1 2 2 3 3 3 7 8 7 8 6 6 6 3 2 2 2 6 6 7 18 17 17 28 30 27 27 27 27 27 27 27 25 25 26 27 28 28 27 27 27 27 26 25 25 24 23 22 21 21 20 19 18 17 17 16 15 14 13 12 12 11 10 10 10 10 10 9 9 8 8 8 9 9 9 9 9 8 7 7 6 5
19 19 17 9 2 1 0 0 1 1 0 2 2 3 1 1 2 1 1 4 6 8 7 6 5 1 3 5 2 4 4 4 7 6 8 14 16 25 32 29 28 27 28 28 28 28 26 25 25 26 28 27 27 27 27 27 26 25 24 23 23 22 22 21 20 19 18 17 16 15 14 14 13 12 11 10 10 9 9 9 9 8 9 8 7 7 7 8 8 8 8 8 8 8 7 6 5
18 19 15 6 0 0 1 0 1 2 2 2 1 3 3 2 1 3 3 5 6 7 6 4 3 2 4 5 1 3 5 6 8 7 9 14 22 32 31 30 28 26 28 28 28 28 26 25 24 26 27 27 28 27 27 26 25 24 23 22 22 22 22 20 19 18 17 16 15 14 13 13 12 11 10 9 9 9 8 8 8 7 7 7 6 6 6 6 6 7 7 7 7 6 6 6 5
18 16 11 3 1 1 1 1 2 2 4 4 2 4 4 3 3 5 5 6 5 5 5 3 4 5 5 4 2 3 6 7 8 9 12 17 28 34 31 31 28 26 28 28 29 28 26 25 24 25 26 27 27 26 26 25 24 23 23 22 21 21 21 19 18 17 16 15 14 13 12 12 11 10 9 9 9 9 8 8 7 7 6 6 6 6 6 5 5 6 5 6 6 5 5 5 4
18 10 5 3 1 1 0 2 3 3 4 4 3 3 3 3 5 6 5 4 4 5 4 4 7 7 4 2 3 3 5 8 9 11 15 22 31 33 31 31 29 27 28 29 29 28 27 25 25 24 25 27 26 25 25 24 24 23 23 21 20 20 20 19 17 16 15 14 13 12 11 11 10 9 9 9 9 8 7 7 7 6 6 6 5 5 5 5 5 5 4 4 5 5 4 4 4
16 4 1 1 1 0 1 2 4 3 3 3 3 3 5 6 7 6 5 2 2 3 4 6 6 6 3 2 3 4 7 10 12 15 21 27 32 32 32 31 29 28 28 29 29 28 27 26 24 23 25 25 25 25 23 24 23 23 22 21 19 19 19 18 16 15 14 13 12 11 11 10 10 9 8 8 7 7 6 6 6 6 6 5 5 5 4 4 4 4 4 4 4 4 3 3 3
10 1 1 1 1 1 2 3 4 3 4 3 3 2 7 8 7 7 5 3 3 5 4 4 3 4 4 5 5 4 8 13 16 19 25 29 32 32 32 31 30 29 28 29 28 28 27 25 24 23 24 24 25 24 23 23 23 22 22 20 19 18 18 17 15 14 13 13 11 11 10 10 9 9 8 8 7 6 6 6 6 6 6 5 5 4 4 4 4 4 4 4 4 4 3 2 3
4 2 1 1 1 2 3 3 3 3 4 3 4 4 9 8 7 7 6 5 5 5 4 4 5 6 7 6 5 4 9 18 22 22 25 28 29 31 30 29 30 30 29 29 29 28 26 25 24 23 23 24 24 23 23 23 22 22 20 20 19 18 17 16 14 13 13 12 11 11 9 10 9 8 8 7 6 6 5 6 7 7 6 6 5 4 4 4 4 4 4 4 4 4 3 2 2
2 1 1 1 0 1 2 3 4 3 4 3 2 5 9 8 7 5 5 6 4 4 4 5 6 7 8 5 3 8 14 21 24 24 26 26 27 28 28 28 28 29 30 29 29 28 26 25 25 23 23 24 23 23 22 22 21 20 19 19 18 17 17 15 14 13 13 12 11 10 10 10 9 8 7 6 6 6 6 6 7 8 7 6 5 5 5 4 5 5 5 5 5 4 3 2 2
1 1 1 0 1 2 3 3 5 5 4 2 3 5 8 9 8 6 7 7 4 5 3 3 6 7 7 4 3 11 17 19 21 23 25 25 25 26 27 27 27 29 29 29 29 28 26 25 25 24 23 23 23 22 21 21 20 19 19 18 18 17 16 15 14 13 13 12 11 10 10 10 8 7 6 6 6 6 6 6 7 8 7 6 6 6 5 5 6 6 6 6 5 5 4 3 2
1 2 2 1 2 2 2 3 4 4 4 3 3 6 10 10 9 9 8 6 6 6 3 4 8 6 5 5 4 9 15 17 20 21 23 22 22 25 25 27 27 28 28 28 28 27 27 25 25 24 23 23 23 22 21 21 20 19 18 18 17 17 16 15 14 13 12 12 11 10 10 9 8 7 5 5 5 6 6 6 7 7 7 7 6 6 5 6 6 6 6 6 6 5 4 3 3
2 2 2 1 1 1 2 3 3 2 4 3 5 8 11 7 7 9 9 7 6 4 4 8 9 6 6 6 6 6 11 19 24 23 23 21 21 24 24 25 27 27 26 27 28 27 27 25 25 25 24 23 23 22 21 21 20 19 18 18 17 16 16 15 14 13 12 12 11 10 9 9 7 6 5 4 4 6 6 6 7 7 7 6 5 5 5 5 5 6 6 6 6 5 4 3 3
3 1 2 1 2 2 2 3 2 2 4 3 7 10 8 3 8 10 8 8 4 2 7 9 6 4 5 8 6 8 15 23 25 24 24 22 22 22 22 24 25 26 25 26 27 27 27 25 25 25 24 23 23 23 22 21 20 19 19 18 16 16 16 15 14 13 12 11 10 10 9 8 7 6 5 3 4 5 5 6 7 7 6 6 5 4 4 4 4 4 5 5 5 5 4 3 2
3 1 2 2 2 2 2 4 1 3 4 4 7 10 7 3 8 7 4 5 4 6 6 5 4 1 6 7 7 16 24 25 25 25 24 22 22 21 21 23 25 25 24 25 25 27 27 25 25 24 24 23 24 24 23 22 20 20 19 17 16 16 15 14 14 13 12 10 10 10 9 8 7 6 5 3 3 4 5 5 6 6 6 5 4 4 5 4 4 5 5 6 5 5 3 3 2
2 0 0 2 2 2 3 3 2 2 3 4 8 11 9 4 5 3 4 5 5 9 3 2 2 1 6 7 15 27 28 26 26 26 25 23 23 22 22 23 25 26 24 24 25 26 26 25 25 24 24 24 24 24 23 22 20 19 19 17 16 16 15 14 13 13 12 11 10 10 9 8 7 6 5 4 3 3 4 5 5 5 4 4 3 5 6 5 5 6 6 7 6 4 3 3 2
2 2 2 4 3 3 4 5 4 1 1 7 9 11 12 9 6 3 6 4 4 8 1 3 4 5 10 16 25 30 28 28 27 26 24 22 22 22 23 23 26 27 25 25 25 27 26 25 26 25 25 25 25 24 24 23 21 19 19 18 17 16 15 14 14 13 13 11 11 11 10 8 7 6 5 4 3 3 4 4 4 4 4 3 3 5 7 7 7 7 7 7 5 3 2 1 1
3 2 2 5 4 4 3 2 3 4 1 7 8 9 11 12 9 6 6 4 7 8 2 4 6 7 13 20 27 28 27 28 27 26 24 21 21 21 21 23 26 26 26 26 26 27 27 26 27 27 26 26 25 24 24 23 21 19 19 19 18 17 16 15 15 14 13 12 11 11 11 9 7 7 5 4 3 3 3 3 3 3 3 2 2 4 7 8 8 8 7 5 4 3 1 1 2
4 2 3 6 6 6 5 4 7 7 5 9 7 6 7 10 9 6 6 8 9 9 7 7 7 8 13 16 23 26 26 25 25 24 22 21 21 21 21 23 25 26 27 27 27 27 27 28 28 28 27 26 26 25 24 23 22 21 20 20 19 18 17 16 16 15 14 13 12 11 11 9 8 7 5 5 4 3 3 3 3 3 2 1 1 2 4 7 7 7 6 5 4 3 3 2 2
3 5 6 5 3 5 5 3 8 6 6 8 7 6 6 8 7 7 10 9 7 8 11 13 14 15 16 16 19 24 24 23 24 22 21 21 21 21 22 24 25 26 27 26 27 28 28 28 29 29 28 28 27 26 25 24 23 22 21 21 20 19 18 17 16 16 15 14 13 12 11 10 9 7 6 6 5 4 3 3 2 1 1 1 1 1 3 5 5 5 5 5 4 4 4 3 2
3 9 10 7 3 6 6 1 5 3 5 5 7 7 7 8 5 9 15 11 7 11 14 14 17 20 20 20 19 20 20 20 22 22 22 21 22 22 22 24 25 25 26 26 27 28 29 29 30 30 29 29 28 27 26 25 24 23 22 22 21 20 19 18 17 17 16 14 13 12 11 10 9 8 7 7 6 5 4 3 2 2 3 3 3 3 4 4 5 5 5 5 5 6 5 4 2
5 7 8 9 7 10 9 0 3 3 7 6 7 6 7 8 6 9 15 10 3 7 11 10 13 20 22 21 20 19 18 19 20 22 23 23 24 24 25 26 26 27 27 27 28 28 29 30 30 31 30 29 29 28 27 26 25 24 23 22 22 21 20 20 18 18 16 15 14 13 12 11 10 9 8 7 6 6 5 4 3 4 4 4 4 5 5 6 7 7 6 6 6 6 6 4 3
10 8 6 8 7 11 12 4 3 1 6 7 5 6 9 12 7 8 14 8 2 5 10 9 11 17 21 19 18 19 19 19 21 23 24 24 25 25 26 26 27 28 27 28 28 29 30 30 31 31 31 30 30 29 28 27 27 25 24 23 23 22 21 21 19 18 17 16 14 14 13 12 11 9 9 8 6 6 6 4 4 5 5 4 4 5 6 7 7 7 6 6 6 5 4 3 3
10 11 7 7 8 11 11 7 5 6 7 5 7 8 13 13 6 8 15 6 3 8 12 12 13 15 18 18 18 17 16 18 20 22 22 22 24 24 25 25 26 27 27 29 29 29 31 31 31 31 31 31 30 29 28 28 27 26 25 24 24 23 22 21 20 19 18 16 15 14 14 13 12 10 10 8 7 7 6 6 5 6 5 5 5 6 6 7 7 6 5 5 5 4 4 3 3
8 10 10 10 12 12 11 12 6 7 6 6 9 10 12 9 4 6 11 6 6 10 13 14 15 15 16 17 17 17 16 18 20 22 22 23 24 24 26 26 26 28 29 29 29 30 31 31 31 31 31 31 30 30 29 28 28 27 26 25 24 24 23 22 20 19 18 17 16 15 15 14 12 11 10 9 8 7 7 7 7 7 6 6 6 6 6 6 6 6 5 4 4 4 4 3 3
5 7 9 11 13 12 10 12 10 6 7 9 12 12 13 8 4 6 6 9 10 12 13 15 15 16 16 16 16 15 15 18 21 22 21 21 24 25 26 27 27 28 29 28 29 30 30 30 31 32 31 30 31 30 29 29 28 28 27 26 25 24 23 22 21 20 19 18 16 15 15 14 13 12 11 10 9 9 8 8 8 8 7 6 7 7 6 6 5 5 4 4 4 5 4 4 4
7 7 10 12 11 12 11 11 12 4 6 12 14 12 10 6 6 8 7 11 14 14 14 15 16 14 14 15 14 12 12 18 23 22 21 22 24 26 27 28 29 29 30 30 30 29 30 31 31 32 31 30 31 31 30 30 29 28 28 27 26 25 24 23 22 21 19 18 17 16 16 15 14 14 13 12 11 10 10 10 9 9 8 7 7 7 7 6 5 4 4 4 5 5 5 5 5
8 8 10 12 8 11 11 8 10 4 4 11 10 4 4 8 11 7 10 12 13 15 15 15 15 13 12 13 12 11 12 18 21 20 23 25 26 28 29 30 30 30 30 30 29 29 30 31 31 31 31 31 31 31 31 30 30 29 28 27 26 25 24 24 23 21 20 18 18 17 17 16 16 15 14 13 12 12 11 12 11 11 9 8 7 7 7 6 5 5 4 5 5 6 6 6 5
4 5 4 6 6 8 7 4 7 4 4 11 10 2 5 13 13 9 13 14 14 13 14 14 13 11 12 12 11 11 13 16 18 20 25 26 27 29 29 30 31 31 29 30 30 31 31 31 31 31 31 32 32 31 31 31 30 30 29 28 26 25 25 24 23 22 20 19 18 18 17 17 17 16 15 14 13 13 13 13 12 11 10 9 9 8 8 6 5 5 5 5 6 7 7 5 5
2 3 2 2 3 6 5 1 3 2 4 13 11 5 7 11 11 10 13 15 17 15 14 14 13 11 12 12 11 11 12 15 19 22 25 26 27 28 29 30 31 31 30 31 33 32 32 31 31 31 32 33 32 32 32 31 31 30 29 28 27 26 26 25 23 22 21 20 19 19 18 18 18 17 16 15 14 15 14 14 13 11 11 11 10 10 9 8 7 6 6 6 7 7 6 5 4
1 1 4 2 2 6 7 3 4 4 3 11 12 5 6 7 10 13 14 16 17 15 15 14 14 13 13 12 11 11 11 15 19 23 25 27 27 28 29 31 32 33 32 32 33 33 32 32 32 32 32 33 33 32 32 32 31 31 30 29 28 27 26 25 24 22 22 21 20 20 19 18 18 17 16 16 16 16 16 15 13 11 11 11 11 11 10 9 8 8 7 6 6 6 5 4 3
0 2 4 4 4 5 6 5 4 6 2 5 9 6 6 4 10 14 15 17 16 14 14 15 14 14 13 12 11 11 10 12 16 21 26 28 28 29 30 31 33 33 33 33 33 33 33 33 33 33 33 33 33 33 32 32 31 31 30 29 28 27 26 25 24 23 23 22 21 20 19 18 18 17 17 17 17 17 17 15 13 12 12 12 12 12 11 10 9 8 8 7 7 7 5 4 3
2 2 3 4 4 3 4 5 4 3 3 5 9 9 7 3 8 14 15 17 16 14 15 15 14 13 12 11 11 11 12 13 14 19 27 30 29 30 30 31 32 32 33 33 33 34 34 33 33 33 33 33 33 33 32 32 31 30 30 29 28 27 26 26 24 24 23 23 22 21 20 19 18 18 18 18 19 19 18 16 15 14 13 13 13 12 12 11 10 9 9 8 8 8 6 4 3
5 3 3 4 4 5 7 6 4 3 3 6 6 9 9 3 6 13 15 17 16 15 15 14 14 13 12 11 12 12 13 14 15 21 28 30 30 30 30 30 30 31 32 32 32 33 33 33 33 32 32 32 33 33 32 31 30 29 28 28 27 27 27 26 25 25 24 23 23 21 20 19 19 18 19 19 20 19 19 18 17 16 14 14 14 13 12 13 12 10 10 9 8 7 6 4 3
7 6 4 5 4 6 8 6 5 3 4 6 6 9 10 5 7 11 13 15 15 13 12 12 12 12 12 11 12 13 14 15 16 23 28 29 30 30 30 29 30 31 31 31 32 33 33 33 32 32 33 33 32 32 31 30 29 28 27 27 27 28 27 27 27 26 25 24 23 22 21 20 19 19 19 19 20 20 20 19 19 18 16 15 15 14 13 14 13 11 10 9 8 7 6 5 2
5 4 3 5 5 8 8 5 5 3 2 6 6 8 9 6 8 11 12 13 12 12 12 12 13 12 13 13 13 14 16 14 14 20 25 27 28 29 29 29 29 30 30 31 32 33 34 34 33 34 33 33 33 33 33 32 31 29 28 28 28 28 28 27 27 27 26 25 24 23 22 20 19 19 19 20 20 20 20 20 20 19 17 16 16 16 14 14 14 12 10 9 8 8 6 5 3
6 5 4 5 6 9 10 6 6 3 2 7 7 6 9 7 7 8 10 13 14 16 16 16 16 15 13 14 16 16 13 9 11 16 21 25 27 28 29 28 29 30 31 33 34 35 35 34 35 35 34 34 35 35 34 34 33 32 30 29 28 28 28 29 29 28 27 26 25 24 23 21 20 19 19 19 20 20 20 20 20 20 19 18 17 16 14 14 14 12 11 10 9 8 6 4 3
5 5 4 5 5 6 9 7 5 3 3 7 8 7 9 6 8 9 11 14 14 16 18 19 19 17 15 16 16 15 12 10 12 15 18 25 28 29 29 29 31 33 33 34 35 35 34 34 35 34 34 35 36 36 35 35 34 33 31 29 28 28 29 30 29 28 28 27 26 25 24 23 23 22 20 20 20 20 19 20 20 20 20 19 17 16 14 14 15 13 11 10 9 8 6 5 4
5 5 4 6 4 2 6 5 3 2 4 5 4 4 6 2 5 9 12 13 9 9 12 12 14 16 17 18 16 15 15 14 15 15 16 21 25 28 29 30 32 33 33 34 35 35 35 36 37 36 37 37 37 37 37 35 33 31 30 29 28 27 28 28 28 28 28 29 28 27 26 25 25 25 23 21 21 20 20 19 19 19 19 19 18 16 15 15 15 14 12 11 10 9 7 6 5
5 6 7 7 4 5 7 4 5 5 3 3 2 3 5 2 6 8 10 11 9 8 10 10 11 13 13 12 12 13 14 15 15 16 16 17 21 27 31 33 33 32 33 35 37 37 38 39 40 40 39 38 38 38 37 34 31 30 28 26 24 24 24 24 25 26 28 29 29 28 28 27 26 25 24 23 22 21 21 19 18 19 19 19 18 17 16 15 16 14 12 12 12 10 8 7 5
6 8 10 9 5 5 7 4 4 5 5 4 3 2 6 3 6 7 6 9 12 10 11 14 13 12 11 11 12 13 13 13 14 15 16 17 21 27 31 33 32 33 35 38 39 41 41 41 41 41 39 39 38 38 36 35 33 31 29 27 25 23 23 25 26 26 27 29 29 29 28 28 27 25 24 24 23 23 22 20 19 19 18 18 19 19 17 16 17 15 13 12 13 11 9 8 6
8 6 8 8 7 7 7 3 1 3 5 5 2 3 5 4 5 7 6 10 15 12 12 15 13 12 13 13 13 13 13 14 13 14 15 16 20 24 27 32 34 35 39 40 40 41 41 40 39 40 40 39 39 38 37 36 35 34 33 33 31 28 27 28 28 27 27 28 28 29 29 28 28 26 25 24 23 23 23 22 20 19 18 18 19 20 18 17 17 16 13 13 14 12 10 10 8
7 5 9 8 8 8 8 5 4 5 4 6 2 5 4 6 6 7 7 9 11 12 13 14 13 14 15 15 14 15 15 15 14 15 15 16 19 23 27 33 38 40 42 40 39 40 42 41 40 41 41 40 39 38 38 38 37 36 36 34 32 32 32 30 28 27 27 27 28 29 30 30 29 28 26 25 24 23 22 22 22 20 19 18 19 19 19 18 17 16 15 14 15 14 12 11 10
5 6 8 6 7 7 5 5 5 3 1 7 5 5 4 7 6 3 7 9 10 13 16 15 14 16 16 17 16 16 16 16 15 16 17 18 21 27 32 35 40 43 42 40 42 43 43 43 42 41 41 41 40 40 40 40 40 38 36 34 33 33 32 30 28 27 27 27 28 29 30 30 31 30 28 27 25 25 23 22 22 22 20 19 19 19 19 18 17 17 16 15 17 16 13 12 11
5 4 4 2 3 2 2 4 3 0 2 9 8 5 4 7 5 2 5 8 11 14 15 15 16 17 17 17 17 17 15 14 15 16 16 18 24 32 36 36 39 40 39 40 43 43 42 42 41 41 42 42 41 41 41 41 41 39 37 36 35 33 31 29 28 27 27 27 28 28 29 30 31 31 30 28 27 26 24 24 24 23 21 19 19 19 19 19 18 18 17 16 17 17 15 13 12
4 3 2 2 3 1 1 1 2 1 6 8 8 7 6 6 5 5 5 8 12 12 11 13 15 16 17 16 16 17 15 14 15 16 16 18 26 32 33 33 35 35 35 36 37 37 38 39 40 41 43 43 41 41 42 42 41 40 39 39 38 36 32 29 28 28 28 28 28 29 29 30 30 30 30 29 28 27 26 25 25 24 23 21 20 19 20 20 19 19 18 17 18 17 16 14 13
6 3 4 1 4 3 2 2 3 6 8 4 8 8 8 8 6 6 8 10 14 14 13 15 17 19 18 17 17 17 16 15 15 15 15 16 20 24 26 29 31 31 31 32 33 34 35 37 39 40 42 42 41 41 42 42 42 41 41 40 39 37 34 32 32 31 30 30 30 30 29 29 29 29 29 29 29 28 27 27 26 26 25 23 21 20 20 20 19 19 18 18 19 18 17 15 14
7 5 6 4 3 2 3 3 2 7 6 2 6 7 5 9 6 7 11 11 13 14 14 16 19 21 19 18 18 16 16 16 15 15 15 15 16 17 20 26 29 29 31 33 34 34 35 36 38 39 41 42 42 41 42 42 42 43 43 42 40 38 36 35 34 33 32 32 31 30 29 30 30 29 29 30 30 29 28 28 28 27 27 25 22 21 20 20 20 19 19 19 20 20 18 17 17
8 6 6 7 5 4 6 5 3 4 4 3 4 4 3 6 4 9 13 13 14 15 15 16 18 19 20 20 19 17 17 17 16 16 15 15 16 16 20 26 28 29 33 35 35 35 35 36 38 40 41 42 42 41 42 42 42 44 44 43 41 38 37 37 36 35 33 33 33 31 31 31 32 32 32 32 31 30 29 29 29 28 27 26 23 22 21 20 20 20 20 21 21 20 19 19 19
7 6 6 7 7 6 5 4 4 4 3 3 1 3 4 4 4 9 13 14 14 13 14 16 16 16 17 17 16 15 16 17 16 15 16 17 18 18 22 26 29 31 34 35 35 36 36 36 38 40 40 41 42 41 41 42 42 43 43 43 41 39 38 38 37 36 35 35 34 33 32 33 33 34 34 33 32 30 29 29 29 28 28 27 25 23 22 21 21 20 21 22 22 21 20 20 20
5 5 5 7 6 5 3 4 6 2 2 3 2 4 5 3 5 6 7 10 11 12 13 14 14 15 14 12 11 13 14 16 15 16 18 19 18 19 22 26 28 31 34 35 36 36 37 37 38 40 41 41 42 42 42 42 42 42 42 42 41 40 38 37 37 37 36 36 35 35 34 34 34 34 34 33 31 30 29 29 30 29 28 28 26 25 24 23 21 21 23 23 23 22 21 20 20
3 4 7 6 6 7 4 4 2 1 3 4 3 4 5 3 5 6 6 7 9 11 12 13 15 16 14 11 10 12 14 15 16 17 19 19 18 19 23 27 29 30 32 35 38 40 40 39 38 39 40 40 40 42 42 42 41 41 41 41 41 40 38 37 38 38 36 35 35 35 35 35 35 34 34 33 32 30 29 30 30 30 29 29 28 26 25 24 22 23 24 25 24 23 22 21 21
6 6 7 4 6 5 4 2 2 2 5 5 3 5 4 3 6 4 5 8 9 10 11 13 15 15 14 11 10 13 15 16 17 18 17 17 17 18 24 29 31 33 35 37 41 42 42 41 40 39 40 41 42 42 42 42 41 41 40 41 41 40 40 39 38 37 36 35 35 35 35 35 35 35 34 33 32 30 29 30 31 30 30 30 29 27 26 25 24 25 26 25 25 23 22 22 22
6 5 7 6 3 4 5 3 4 4 5 4 4 5 5 7 6 2 6 10 10 11 11 12 14 14 13 12 12 14 14 14 15 16 15 15 16 18 23 29 32 35 36 39 41 40 39 40 41 41 42 43 43 41 40 40 40 41 40 41 42 41 40 39 37 36 35 36 37 36 36 36 36 35 34 33 32 31 30 30 31 31 31 31 30 29 27 26 26 27 27 26 25 25 24 24 23
3 3 4 4 3 5 5 4 4 4 4 3 4 6 5 7 6 6 9 11 11 11 10 11 14 16 14 13 13 14 13 13 15 16 16 17 18 21 26 31 34 36 37 38 38 36 37 39 40 41 41 41 40 39 39 39 39 40 39 39 40 41 40 39 38 37 36 37 38 37 37 37 36 35 35 34 33 32 31 31 32 32 32 32 31 30 29 28 28 29 29 27 26 26 26 25 25
5 4 5 4 2 2 3 2 3 4 4 3 2 6 5 4 5 10 11 11 12 12 11 11 14 15 15 15 15 13 12 13 15 15 16 18 19 20 27 33 34 35 36 35 35 35 38 39 39 41 40 39 39 40 40 39 39 39 39 39 39 40 40 39 38 38 38 38 38 38 38 37 37 36 35 35 34 33 33 32 33 34 34 33 33 32 31 30 30 31 31 29 27 27 27 27 26
10 8 8 7 4 4 4 4 3 4 4 4 3 7 8 3 4 9 10 10 11 11 12 11 12 14 14 14 15 13 12 13 15 15 15 17 17 18 23 29 30 30 30 32 33 35 36 37 39 40 39 39 41 41 41 41 39 39 39 39 39 39 40 40 39 39 38 38 38 38 38 37 37 37 36 36 36 35 34 34 34 35 35 35 34 34 32 32 32 33 32 31 29 28 29 29 28
Wind_Direction
148 143 152 167 173 177 170 186 302 355 311 283 265 287 232 184 131 144 130 136 120 153 121 108 114 105 97 110 132 117 62 42 156 137 150 147 148 148 146 151 148 140 139 135 134 135 137 139 139 139 139 137 139 140 141 142 142 142 140 140 139 136 133 130 128 127 127 125 124 123 123 122 118 114 110 107 106 106 108 108 108 105 104 104 102 99 97 97 98 100 101 102 105 108 115 123 127
150 145 157 169 170 170 105 292 348 358 4 320 282 202 235 9 122 202 160 170 160 130 116 106 98 84 83 102 123 110 47 16 103 116 99 139 145 151 150 151 149 144 141 138 138 137 139 141 139 139 139 141 142 142 142 143 142 141 140 140 138 136 132 129 129 130 128 126 126 126 125 122 118 114 109 106 105 105 107 108 108 105 103 102 102 102 99 99 98 97 98 98 100 103 107 114 124
152 153 161 169 165 194 328 38 33 33 21 321 278 243 194 18 254 244 171 169 125 117 113 110 94 90 97 96 93 71 74 66 117 116 122 143 148 157 155 152 149 146 143 142 140 140 142 143 143 140 142 143 144 144 143 143 142 140 139 139 138 135 132 132 132 132 130 128 129 129 127 122 118 113 109 106 106 107 107 108 108 108 105 104 104 104 102 101 100 97 96 95 96 99 103 108 116
154 161 163 169 156 246 322 52 234 132 331 267 281 280 210 224 254 336 116 128 124 121 119 119 87 38 96 109 107 86 115 124 131 128 135 155 159 158 157 153 150 148 146 145 141 143 145 145 144 143 144 145 145 145 143 143 141 140 139 140 139 136 134 135 135 134 132 132 132 130 126 121 117 112 110 109 109 109 109 109 108 110 109 105 105 105 103 101 104 104 101 96 92 93 97 104 109
158 166 166 176 75 145 86 295 229 149 228 199 243 273 226 220 120 65 83 107 124 130 125 117 82 38 70 101 157 110 121 122 144 147 136 156 159 157 158 156 153 149 148 148 144 145 148 147 145 145 146 146 147 145 144 143 141 141 141 142 141 138 137 138 137 135 134 135 134 129 126 122 118 114 111 110 110 111 110 111 108 109 110 108 105 104 102 100 103 105 105 102 97 94 92 96 103
160 168 179 218 1 140 98 275 236 222 240 177 190 260 210 196 122 108 96 83 78 95 102 85 101 108 77 68 51 116 136 127 147 155 144 153 158 158 159 159 155 151 151 151 149 148 150 150 146 146 147 148 148 146 146 144 143 144 144 145 142 141 141 140 138 136 136 136 134 131 129 124 121 117 113 112 110 110 110 109 106 105 108 109 106 105 105 103 102 101 106 107 106 103 94 90 93
159 165 193 246 330 171 135 269 250 251 257 184 190 234 178 160 129 123 108 84 61 51 62 98 115 107 89 101 90 103 133 132 141 154 154 154 157 159 161 161 158 155 154 154 153 152 152 151 149 148 148 149 150 149 148 147 147 147 148 148 145 144 144 142 141 140 140 138 136 135 132 128 125 120 116 113 109 108 107 104 101 100 102 104 105 105 108 107 103 101 105 108 111 113 106 96 87
159 164 160 194 16 329 218 262 259 224 251 231 216 204 143 137 135 131 118 97 101 86 96 128 121 94 85 111 105 84 101 129 143 152 154 153 157 160 162 162 161 158 157 157 155 153 154 153 151 150 150 151 152 151 151 150 150 151 151 151 149 147 146 146 145 144 144 140 139 138 135 133 131 125 119 115 109 105 103 99 94 94 96 99 100 102 109 110 106 108 111 112 116 119 116 105 88
161 226 119 110 34 326 269 260 260 223 252 256 244 190 131 139 139 133 124 93 116 121 123 143 113 100 111 96 105 97 102 132 142 147 152 155 159 161 163 164 163 161 159 159 157 155 155 155 153 154 154 154 155 153 153 153 153 154 154 154 153 151 150 150 149 149 148 146 145 141 139 139 137 130 123 117 109 103 100 95 88 84 85 90 93 100 116 120 114 114 117 124 125 127 125 105 83
163 256 156 73 92 334 303 260 250 234 255 230 227 170 138 145 141 135 130 118 132 123 110 94 79 115 127 106 106 112 125 141 141 144 153 157 160 161 162 165 165 163 161 160 159 158 157 158 157 157 158 157 157 156 156 157 157 157 157 158 157 155 155 155 154 155 154 152 149 144 142 143 141 132 125 117 108 104 98 88 80 75 76 81 84 89 107 119 122 122 123 131 131 127 122 104 84
136 217 193 40 118 300 271 272 281 263 259 242 233 164 146 146 133 128 123 120 122 114 124 95 94 123 117 105 100 120 133 141 142 146 154 157 160 162 162 164 166 164 163 162 161 160 159 161 161 161 161 160 161 160 160 160 160 159 160 162 162 162 161 159 159 162 161 157 152 146 146 146 142 134 126 118 109 101 91 81 74 69 70 71 72 76 93 108 116 120 121 127 128 122 115 103 85
98 166 156 96 200 215 221 265 285 286 283 242 223 170 147 143 140 148 141 138 129 121 160 139 141 138 105 111 114 128 135 139 143 150 155 157 160 163 163 166 167 166 165 164 164 164 162 163 164 165 165 165 166 164 164 164 164 163 163 166 167 169 167 164 166 169 167 161 156 149 149 150 145 140 129 117 106 95 87 78 71 66 65 64 67 72 88 99 104 111 118 125 125 120 112 101 92
124 163 116 211 200 192 235 259 273 304 304 230 193 161 148 150 159 161 140 135 146 147 183 154 153 139 99 123 124 135 142 145 146 150 156 157 160 163 166 168 168 168 166 166 167 167 166 166 167 168 168 170 171 169 169 169 168 168 168 170 172 174 173 171 173 174 174 167 161 156 155 153 150 147 130 117 103 91 86 77 68 63 62 62 67 75 89 98 103 109 116 125 123 119 116 108 100
165 183 135 240 243 212 242 257 265 283 283 231 157 151 153 159 159 151 133 138 166 169 139 139 146 117 107 137 138 155 151 152 152 151 156 156 158 162 167 170 170 169 167 169 170 171 169 169 171 170 170 172 174 175 175 174 174 174 175 176 177 180 180 179 180 180 179 174 168 165 161 157 155 150 132 122 106 91 81 74 67 61 62 63 68 81 96 105 108 113 118 127 127 125 126 117 101
185 296 124 274 302 291 241 231 232 164 251 215 151 148 142 136 141 146 146 149 178 153 117 137 157 102 147 170 163 168 155 154 154 152 155 156 157 160 166 170 173 172 169 172 173 174 172 173 174 173 173 173 176 179 179 180 180 180 181 182 183 184 186 186 185 185 184 181 177 174 168 163 160 153 141 133 115 96 78 72 67 61 59 63 74 89 106 113 111 114 121 128 133 133 132 119 96
197 354 89 295 271 269 234 217 154 134 249 207 152 141 117 84 134 145 147 124 127 144 132 156 194 133 165 179 151 152 153 155 154 152 154 155 159 161 165 170 174 175 172 175 176 177 177 176 177 176 177 177 179 183 183 184 185 187 186 186 188 187 189 190 190 190 188 187 186 182 177 172 168 161 154 149 129 105 82 72 70 64 57 64 85 106 119 124 124 125 128 134 139 138 136 131 111
173 277 166 272 239 244 217 211 185 171 239 165 154 142 122 118 131 107 95 92 126 154 163 151 177 96 146 145 139 146 150 154 153 154 155 156 160 162 166 170 174 177 176 179 179 179 180 180 180 180 180 180 182 185 186 187 187 190 190 190 191 191 192 193 193 195 193 192 193 190 186 184 178 170 165 161 145 120 94 76 71 70 65 71 103 134 138 140 143 144 145 151 150 142 139 138 130
164 177 216 242 227 233 206 203 215 196 163 160 168 153 138 147 155 127 107 83 127 149 163 86 66 54 111 126 136 144 149 153 155 157 158 159 162 163 167 170 173 177 178 181 182 182 183 184 183 182 182 183 185 186 188 189 188 191 193 193 193 194 195 196 198 200 200 199 198 196 195 194 185 180 179 165 145 121 104 85 76 77 75 77 118 155 157 157 163 164 161 165 165 161 152 125 76
189 162 199 236 216 220 222 228 285 323 198 170 171 160 150 153 153 151 142 140 147 148 140 89 83 84 112 128 137 146 152 155 160 161 162 163 166 166 167 170 172 177 180 182 184 184 186 186 186 186 185 185 187 188 191 191 190 192 195 194 194 196 197 198 202 204 207 207 204 201 200 201 194 191 192 172 154 139 124 112 97 94 89 76 112 165 174 175 182 182 178 182 186 198 232 324 325
194 178 224 245 231 251 276 276 283 285 187 166 166 156 148 151 149 159 151 150 170 172 164 139 138 140 134 138 143 149 155 159 164 164 165 166 169 169 168 170 173 178 182 182 184 186 188 188 189 189 188 188 190 190 192 193 192 194 196 196 197 198 198 201 206 209 212 212 211 209 205 205 202 200 199 190 185 172 157 155 137 118 115 91 97 177 196 196 200 202 204 210 216 238 261 284 295
171 197 221 241 228 260 262 254 284 271 168 158 149 132 140 153 152 162 144 141 197 205 191 177 163 156 148 149 151 154 158 162 167 168 168 168 170 172 172 174 176 180 181 182 184 187 189 190 191 191 191 192 192 193 194 195 194 196 198 198 200 201 201 204 208 213 215 215 216 215 211 209 209 208 207 204 202 199 184 183 195 185 172 262 281 267 232 224 222 225 230 231 245 262 271 282 276
209 219 226 249 273 280 266 47 320 325 114 134 142 151 155 150 164 171 158 160 208 211 205 189 161 156 156 156 156 158 162 165 171 172 170 170 171 172 173 175 178 181 181 183 186 188 190 192 192 193 194 195 196 196 197 197 197 199 200 201 204 205 206 208 212 216 217 218 219 219 217 213 215 215 215 214 213 217 210 203 236 271 292 288 280 275 258 248 240 240 247 252 263 270 279 275 245
244 240 229 244 252 265 268 29 323 35 103 161 166 163 146 153 189 186 179 185 218 196 188 178 160 157 154 154 156 162 168 171 175 174 172 172 173 174 174 176 178 181 183 187 189 189 191 193 194 196 197 198 200 200 200 201 202 203 204 205 207 209 210 212 216 218 220 221 221 221 220 217 220 221 222 224 222 226 226 227 255 276 295 296 282 270 260 253 246 249 260 266 268 271 278 256 230
235 252 240 244 241 252 265 250 228 154 165 185 149 139 161 183 189 179 198 214 20 135 146 145 154 152 149 154 161 166 170 173 176 175 175 174 175 176 176 177 179 181 184 188 191 191 193 195 196 198 200 202 202 203 204 205 205 206 207 208 210 213 214 216 219 220 221 222 222 223 223 220 224 228 227 228 230 234 238 246 264 274 288 291 273 260 254 249 246 251 263 269 266 263 261 229 230
234 252 261 266 259 257 270 264 208 190 200 167 135 164 190 196 163 172 205 215 93 130 133 137 146 152 155 160 164 167 170 173 176 174 175 176 176 176 177 180 180 183 186 188 191 193 195 196 198 200 202 204 204 205 206 207 209 209 210 211 213 215 217 219 221 223 223 223 224 225 225 224 227 232 231 232 237 242 246 257 267 271 277 277 262 253 250 246 245 249 257 263 255 245 239 225 241
232 248 265 267 266 267 273 274 239 185 199 158 158 195 207 194 132 191 203 173 134 133 135 142 150 162 165 165 168 169 172 174 176 174 174 175 176 177 180 182 183 186 188 189 192 194 196 197 199 202 203 205 205 206 208 209 211 212 212 214 215 216 218 221 222 224 225 225 226 226 227 229 232 235 234 236 241 246 253 263 271 273 273 270 261 253 249 249 252 253 254 258 248 238 244 245 254
249 254 269 262 267 271 263 272 261 192 188 181 179 208 211 186 178 221 191 151 144 134 143 150 156 169 170 169 171 172 175 175 175 173 172 174 178 181 181 184 186 189 190 190 193 194 196 198 200 203 203 205 206 207 209 210 212 213 214 215 216 217 219 222 224 226 227 227 227 227 229 231 234 234 233 237 242 250 257 264 273 274 270 264 259 253 246 251 257 254 253 261 255 242 246 259 265
285 288 292 278 277 275 261 266 266 230 195 195 186 209 205 173 220 217 158 150 149 143 153 159 164 173 173 173 171 173 178 176 176 175 175 179 182 183 184 187 188 189 192 192 193 194 195 198 201 203 204 205 207 209 210 212 213 214 216 217 218 219 221 223 225 227 228 229 229 229 231 232 235 234 234 239 246 255 261 265 270 269 263 255 254 249 243 252 263 257 251 253 249 240 246 261 266
270 273 287 286 297 285 267 259 260 251 205 190 169 211 208 197 224 181 142 155 149 150 159 163 170 172 174 177 173 176 178 177 180 182 184 184 184 185 187 190 189 190 194 194 194 196 197 200 202 204 206 207 210 211 212 214 215 216 218 219 220 221 224 226 227 229 230 231 232 232 233 233 235 236 238 244 250 258 264 266 266 263 257 251 251 245 243 256 265 258 252 250 246 247 258 267 266
280 259 257 290 323 297 271 234 239 242 191 166 149 232 229 214 218 154 146 159 147 155 165 167 174 173 176 180 179 180 179 181 184 186 188 187 187 188 189 191 192 193 194 195 196 198 200 201 203 205 207 209 212 213 214 215 216 217 219 220 222 223 225 228 229 231 233 233 235 235 236 235 235 238 241 246 251 258 264 267 265 261 253 248 249 244 244 256 264 267 265 260 252 250 264 275 272
329 298 268 286 295 277 291 106 178 231 185 159 160 234 238 218 210 163 157 160 154 163 171 172 176 177 179 179 183 185 184 187 187 188 190 190 190 191 190 190 192 195 194 195 199 200 201 202 204 206 208 211 212 214 215 216 217 218 220 222 224 225 227 230 232 233 235 235 237 238 239 239 238 239 243 247 251 255 262 267 264 256 251 251 249 242 245 254 265 275 275 269 259 253 264 276 276
61 299 293 300 234 267 302 308 181 223 226 159 166 239 266 220 189 169 164 163 162 166 173 176 177 180 182 180 185 188 187 189 189 190 193 193 193 194 193 191 192 194 195 196 199 200 202 203 205 206 208 211 212 215 216 218 220 221 223 225 226 228 229 232 234 235 237 237 239 240 240 239 239 240 244 248 252 255 260 264 259 252 252 253 246 241 245 255 267 277 280 275 264 258 262 266 273
43 171 251 269 249 283 313 306 226 220 231 166 184 232 277 233 175 167 165 168 167 167 174 179 180 183 185 182 184 187 188 189 191 194 194 194 196 196 195 194 194 195 196 198 198 199 201 203 205 207 209 211 213 215 217 219 221 223 226 228 229 231 232 235 236 237 239 240 240 239 238 238 239 243 247 250 253 255 258 258 254 250 255 255 246 242 246 253 264 274 280 276 268 267 267 271 277
259 173 220 253 243 262 290 296 294 238 200 210 220 230 258 261 166 166 169 170 168 171 178 181 182 184 188 187 183 188 190 192 195 195 194 195 196 197 197 197 196 196 198 200 200 200 202 203 205 208 210 212 214 215 217 219 221 224 228 230 231 233 236 238 239 239 240 240 239 237 236 238 241 246 251 254 255 254 254 253 251 252 258 257 248 245 246 250 257 267 275 272 271 272 265 273 283
202 196 218 266 252 243 253 262 296 313 236 225 233 239 253 278 169 173 173 173 173 178 181 181 182 183 189 191 187 189 195 200 200 195 194 194 195 197 197 197 196 197 199 201 202 202 202 203 205 208 210 212 214 215 216 218 220 224 227 230 232 234 237 239 240 241 240 238 237 235 237 240 244 249 253 255 255 253 251 250 249 252 258 256 249 246 247 248 251 259 268 266 266 266 258 268 279
173 177 186 230 243 250 253 258 269 287 286 261 242 238 240 216 183 185 179 177 178 179 178 179 183 185 190 196 194 192 199 207 201 194 194 194 196 197 196 196 196 198 199 200 201 202 203 203 204 207 210 211 212 213 214 215 217 220 223 227 229 232 235 238 239 239 238 236 235 236 239 242 247 251 253 253 252 251 250 249 249 252 256 254 249 246 248 251 251 257 266 264 261 256 253 263 259
198 195 195 225 244 263 262 273 276 268 292 270 246 240 245 215 192 194 181 177 180 179 178 182 186 188 192 197 197 197 204 206 195 194 196 196 197 197 196 196 195 197 199 200 200 202 203 203 203 206 208 209 210 210 211 212 213 215 218 221 224 228 231 234 236 236 235 235 235 237 240 242 247 250 250 249 249 249 249 249 249 250 254 255 252 249 254 256 252 257 264 262 256 249 252 257 239
223 231 243 251 245 261 270 270 272 276 291 277 270 260 257 227 197 198 181 180 187 185 183 187 189 191 195 198 200 201 203 191 182 194 196 195 197 197 197 197 195 196 198 200 201 203 204 204 205 206 206 207 210 211 210 211 213 214 216 218 222 226 229 231 233 233 234 235 237 238 240 242 245 248 248 246 247 248 248 248 248 250 253 256 254 250 254 254 248 253 261 258 251 246 249 237 220
205 219 227 249 241 267 283 269 255 240 220 271 274 254 258 234 178 185 192 195 199 194 190 189 188 189 194 198 201 199 192 184 189 195 194 194 195 195 197 198 198 199 199 200 203 204 204 205 207 207 207 208 210 211 212 213 215 216 217 220 222 225 228 231 233 234 234 236 238 240 240 241 243 246 247 245 246 246 246 247 248 251 253 255 252 248 248 246 244 249 256 255 246 243 241 217 216
194 192 198 240 230 206 270 279 308 264 213 254 274 258 280 283 163 186 200 204 211 212 209 203 193 193 197 199 199 195 189 190 194 194 194 194 194 193 196 199 200 200 200 201 203 203 204 206 208 208 209 210 210 211 213 214 215 216 219 222 225 227 230 233 235 236 236 237 239 239 239 240 242 245 245 244 245 244 245 246 247 250 252 252 248 245 245 243 242 246 251 250 239 236 235 215 222
213 199 208 236 215 197 242 290 337 317 285 260 264 324 309 237 191 206 200 198 209 212 210 216 210 204 207 205 204 201 195 195 195 194 194 193 193 195 197 199 199 199 201 202 202 203 205 207 209 209 210 210 211 212 212 212 212 214 216 218 222 226 228 231 232 232 233 235 237 238 237 239 243 245 243 242 244 245 244 244 246 249 251 249 244 242 244 244 243 246 250 247 237 234 232 220 224
239 217 213 219 196 211 248 296 336 324 311 272 217 280 295 256 217 222 190 190 207 205 203 211 209 202 206 208 207 205 202 201 201 200 197 194 195 197 198 199 198 200 203 204 204 205 207 208 209 209 210 210 211 212 211 210 210 210 210 209 212 215 219 223 225 225 226 229 233 235 235 237 243 245 241 240 244 246 244 242 244 248 249 247 244 243 244 244 243 245 250 246 236 233 230 225 227
248 214 188 199 195 213 237 235 259 264 264 268 178 181 273 305 260 231 189 194 208 204 207 213 208 202 205 208 206 203 202 201 203 206 203 200 199 198 199 200 199 201 204 204 204 206 207 208 209 209 210 210 211 211 210 209 209 209 210 210 210 212 216 221 224 226 227 228 231 232 233 237 242 243 241 241 244 245 245 243 243 245 248 247 245 244 244 243 242 245 252 247 236 230 228 230 230
238 141 135 170 186 208 220 197 208 230 252 276 208 168 252 285 257 224 183 197 218 215 217 216 208 207 207 210 209 204 203 200 200 203 202 203 202 201 203 202 202 204 205 203 203 205 207 208 208 208 209 210 210 210 209 209 209 209 210 211 213 215 218 222 224 225 227 229 231 231 234 238 240 241 242 243 244 244 244 241 242 243 244 246 246 245 245 243 243 246 250 245 234 229 230 235 235
219 130 136 156 166 195 192 175 217 233 266 273 243 167 225 267 269 243 174 189 220 221 222 221 213 211 209 210 211 207 206 203 201 202 202 203 202 204 206 205 206 207 205 202 202 205 206 206 207 208 208 209 209 209 209 210 210 210 211 211 214 217 220 222 223 225 226 228 231 233 236 238 239 240 242 244 244 244 243 240 240 242 242 245 246 245 244 242 244 248 250 243 233 229 232 236 238
210 164 178 172 175 195 144 170 212 158 224 253 247 169 206 267 274 237 180 193 216 219 220 220 215 214 212 210 211 209 207 205 205 205 204 206 205 206 207 208 209 210 207 204 205 204 204 205 206 207 208 208 208 208 208 209 210 210 211 212 214 216 217 219 221 223 224 225 228 232 234 235 236 238 240 242 242 242 242 239 240 242 242 244 246 246 242 241 245 249 252 246 235 231 233 235 239
179 159 172 331 306 354 43 137 99 288 254 242 227 182 187 262 249 190 191 200 206 211 218 221 220 218 216 212 210 209 207 205 206 206 206 208 210 211 209 209 212 211 209 209 208 206 204 204 204 206 209 208 208 208 207 208 208 209 211 212 214 214 213 214 215 218 220 221 224 227 230 232 234 236 238 239 240 239 238 237 239 242 242 242 245 245 242 241 245 250 252 246 234 230 232 236 242
184 160 133 336 316 349 327 5 92 236 254 221 200 175 172 238 242 197 211 206 197 203 210 214 217 218 216 212 209 208 206 205 204 205 207 206 210 213 210 211 213 210 210 210 209 208 206 205 204 206 209 208 207 207 207 207 207 208 211 213 214 214 212 211 212 215 216 217 220 223 225 228 230 232 233 235 236 235 235 236 238 240 240 240 242 244 242 242 245 249 250 241 230 228 231 236 243
185 167 145 183 269 301 234 233 193 233 259 232 184 158 183 238 235 203 215 215 206 206 210 211 214 217 215 211 209 206 203 204 203 204 206 204 205 208 206 209 210 207 207 210 209 208 207 206 206 206 208 208 207 207 207 207 207 208 210 212 214 213 212 212 213 215 216 217 219 219 219 222 224 226 228 232 235 235 235 235 236 237 238 238 241 243 241 241 244 246 245 236 227 227 231 237 244
180 170 155 176 204 219 219 232 255 248 268 264 175 146 236 266 248 205 204 212 213 209 213 216 216 217 215 213 209 203 200 201 204 204 203 205 206 204 203 206 206 204 205 207 208 207 207 207 206 207 209 209 207 207 207 207 207 209 210 212 213 212 211 212 214 216 216 218 219 219 219 221 222 224 228 233 237 238 237 236 236 238 238 238 239 241 240 239 243 245 240 233 228 230 235 239 244
182 153 139 180 196 188 196 208 224 237 263 280 184 166 216 233 242 219 200 206 211 207 214 218 220 222 219 217 210 200 201 202 202 204 204 207 206 203 203 205 205 203 204 205 206 207 207 207 207 208 210 209 207 207 207 207 208 209 211 212 212 212 212 212 214 216 217 218 220 220 222 224 225 228 231 235 239 239 237 236 236 237 238 237 237 238 238 238 241 241 236 231 230 233 235 239 243
190 125 137 207 189 157 207 206 181 174 313 277 218 212 222 214 261 257 218 216 212 207 217 217 224 230 224 222 208 197 204 204 201 203 206 208 206 203 204 205 206 205 203 203 204 205 206 207 208 208 210 210 208 207 208 208 209 210 211 212 212 212 212 212 214 216 217 218 220 221 224 227 229 231 233 234 237 238 238 236 235 236 237 236 235 236 235 236 239 237 231 229 230 232 235 238 241
168 157 185 195 142 145 228 247 172 88 271 256 223 256 290 298 277 261 214 219 218 211 218 218 223 230 226 220 203 200 205 203 202 205 206 206 202 202 204 206 207 205 203 203 204 205 206 207 207 208 210 210 209 209 208 209 209 210 211 212 213 213 212 213 214 215 216 217 219 222 224 228 230 232 233 234 235 236 237 236 235 236 236 234 234 235 234 234 236 234 230 229 231 232 235 238 240
138 192 192 123 95 152 191 249 284 251 256 275 245 247 270 251 265 263 186 202 218 213 213 217 225 231 230 221 206 205 206 202 205 206 207 205 201 202 204 205 207 205 204 204 205 206 206 206 207 208 209 210 210 209 208 209 209 209 211 212 213 213 213 214 215 215 216 216 219 221 223 226 230 232 232 232 232 233 235 235 234 234 234 233 232 233 232 233 234 232 230 231 232 233 236 238 239
167 182 172 134 135 183 170 201 232 220 246 280 280 272 246 212 232 241 192 207 215 214 209 212 222 228 230 226 216 212 206 202 205 206 207 204 201 204 203 204 207 207 206 206 207 206 205 206 208 209 211 212 211 210 209 209 209 209 211 212 213 213 214 214 215 215 215 215 218 220 221 224 228 230 230 230 229 229 231 231 231 232 232 231 232 232 231 231 232 231 229 230 232 233 236 238 238
216 129 162 166 168 177 172 184 181 187 235 260 301 303 257 212 196 174 201 217 213 213 211 209 216 220 222 223 222 216 205 201 204 204 205 203 202 204 203 204 205 205 206 207 206 205 204 207 208 210 213 213 212 211 210 209 209 210 211 212 212 213 213 214 214 214 214 216 218 220 220 222 225 227 227 227 227 227 228 229 230 230 230 230 231 230 229 230 230 230 229 229 230 232 235 237 237
210 185 197 196 168 163 174 202 168 166 202 203 256 280 256 217 185 178 196 215 212 209 207 210 217 217 217 218 221 218 204 203 209 206 203 203 204 204 203 205 206 204 206 206 205 204 205 207 208 209 211 211 211 212 211 210 209 210 210 211 211 212 212 213 214 214 215 216 218 219 220 221 223 224 225 224 225 225 226 228 229 229 229 229 230 229 229 229 229 229 229 229 230 232 234 235 236
190 195 204 194 180 137 156 237 236 174 193 182 192 259 261 241 191 186 192 207 215 212 207 212 219 218 217 218 221 218 206 206 210 208 204 203 203 204 203 203 203 203 204 204 204 205 206 207 208 209 209 210 212 212 211 210 209 209 210 210 211 211 212 213 213 214 215 216 217 219 219 219 220 222 223 223 223 224 225 227 227 228 229 229 229 229 229 228 228 228 227 228 230 231 233 233 235
Height
782 784 785 787 786 788 789 790 804 804 805 815 806 801 795 786 787 788 790 788 788 785 778 779 779 781 786 791 794 797 800 801 804 811 815 806 801 805 805 806 807 807 808 809 811 813 815 816 817 818 819 820 821 822 823 824 826 826 828 829 830 831 831 833 834 836 836 837 838 838 840 841 842 842 842 843 843 844 845 845 845 845 845 845 845 846 846 846 846 846 846 846 846 846 846 846 846
783 785 785 787 786 790 793 791 809 814 811 814 802 798 792 785 787 787 789 787 785 781 777 779 779 782 784 786 790 795 800 799 798 800 801 800 802 805 805 807 807 808 809 810 812 814 816 817 818 819 820 822 823 824 825 826 827 828 829 830 831 832 833 834 835 837 837 838 839 840 841 842 843 843 844 844 845 846 846 846 846 846 846 846 846 846 846 846 846 846 846 846 846 846 846 847 847
783 785 785 788 788 790 793 795 812 818 815 812 800 792 788 787 787 783 783 781 779 776 777 779 781 784 786 791 792 797 803 799 796 796 798 801 801 803 805 807 808 809 810 811 813 814 817 818 819 821 822 823 824 825 826 827 828 829 830 831 833 833 834 835 837 838 838 839 840 841 842 843 844 844 845 846 846 847 847 847 847 847 847 847 847 847 847 847 847 847 847 847 847 847 847 847 848
784 785 786 787 791 793 798 804 813 817 814 811 803 790 787 787 783 780 778 776 775 775 778 781 785 784 785 796 794 797 802 798 796 795 798 800 800 802 804 807 809 810 811 813 814 816 817 819 820 822 823 825 826 827 827 828 830 831 832 833 834 835 836 837 838 839 839 840 841 842 843 844 845 846 846 847 847 847 848 848 848 848 848 848 848 848 848 848 848 847 847 848 848 848 848 848 848
784 786 786 786 795 797 801 809 812 816 808 802 800 789 785 783 780 780 777 775 774 775 778 780 789 786 784 792 793 798 800 796 797 795 796 799 800 802 804 807 809 810 812 813 815 817 818 820 821 823 824 825 827 828 829 830 831 832 833 834 835 836 837 838 839 839 840 841 842 844 844 845 846 846 847 847 848 848 848 848 849 849 849 849 849 849 849 849 848 848 849 849 849 849 849 849 849
785 787 787 786 792 793 803 813 813 812 797 790 793 785 781 778 778 780 777 776 773 775 776 780 788 788 791 792 790 794 795 795 796 795 796 798 800 803 805 807 810 811 813 814 816 817 819 820 822 824 825 826 828 829 830 831 832 833 834 836 837 838 839 839 840 841 841 843 844 845 845 846 846 847 848 848 849 849 849 849 849 849 849 849 849 850 849 849 849 849 849 849 849 849 850 850 850
784 788 789 791 793 793 809 817 814 810 790 783 787 780 778 776 775 778 779 780 779 777 777 781 782 788 798 794 793 793 791 793 793 795 797 798 801 803 806 808 810 812 813 815 817 818 820 821 823 825 826 827 828 830 831 832 833 834 836 837 838 839 840 840 841 842 843 844 845 846 846 846 847 848 848 849 849 849 849 849 850 850 850 850 850 850 850 850 850 850 850 850 850 850 850 850 851
784 788 789 796 802 802 813 816 810 806 789 779 779 775 774 774 774 778 781 782 783 781 781 782 779 790 800 793 797 796 790 793 793 796 797 799 802 803 806 808 810 812 814 816 817 819 821 822 824 825 826 828 829 830 832 833 834 835 837 838 839 840 841 841 842 842 844 845 846 846 847 847 848 848 849 849 849 850 850 850 850 850 850 850 850 850 850 850 850 851 851 851 851 851 851 851 851
784 788 790 798 807 809 813 812 804 796 787 779 775 772 771 771 773 777 782 783 783 782 784 782 779 792 799 795 799 795 792 794 794 797 798 800 802 804 807 808 811 812 814 816 818 820 821 823 824 826 827 828 830 831 832 834 835 836 837 838 840 841 841 842 842 843 845 846 846 847 847 848 848 849 849 850 850 850 850 851 851 851 851 851 851 850 850 850 851 851 852 852 852 852 852 852 852
786 789 793 801 809 816 814 805 797 790 783 777 773 771 770 771 773 777 781 783 782 783 784 780 782 792 797 799 800 795 794 794 794 799 800 802 803 805 808 809 811 812 815 816 818 820 821 823 824 827 828 829 831 832 833 834 836 837 838 839 840 841 842 842 843 844 845 846 847 847 848 848 849 849 850 850 851 851 851 851 851 852 851 851 851 851 851 851 852 852 852 852 853 853 853 853 853
791 791 792 805 814 818 811 800 794 788 780 774 772 768 768 769 773 778 780 783 782 784 784 781 789 793 795 799 799 795 794 795 795 798 800 803 804 806 808 810 812 813 815 817 819 820 821 824 825 827 828 830 831 832 834 835 836 837 839 840 841 842 842 843 844 845 845 846 847 848 848 849 849 850 851 851 851 852 852 852 852 852 852 852 852 852 852 852 852 853 853 853 854 854 854 854 854
795 796 796 810 815 812 805 801 795 786 781 777 774 767 765 768 774 780 781 784 783 786 784 782 788 789 797 802 798 795 795 797 797 799 801 803 805 807 809 810 813 814 816 817 819 821 822 824 825 827 829 831 832 833 834 835 837 838 839 840 841 842 842 843 844 845 846 847 847 848 849 849 850 850 851 852 852 852 852 852 853 853 853 853 853 853 853 853 854 854 854 854 855 855 855 855 855
794 797 801 810 807 804 801 799 793 787 783 775 771 765 763 768 774 777 779 783 783 787 783 778 781 784 798 801 796 796 796 797 798 800 802 804 806 807 809 811 813 815 816 818 819 821 822 824 825 827 829 831 833 834 835 836 837 838 840 841 842 842 843 844 844 845 846 847 848 849 849 850 851 851 852 852 853 853 853 853 853 854 854 854 854 854 854 855 855 855 855 856 856 856 856 856 856
790 792 799 806 800 799 798 795 791 791 785 769 765 762 762 767 770 771 776 784 785 783 778 773 776 784 796 799 799 798 795 797 798 801 802 805 807 808 810 811 813 815 817 819 820 822 822 824 826 828 829 831 833 834 835 836 837 839 840 841 842 843 843 844 845 846 847 848 848 849 850 851 851 852 852 853 853 854 854 854 854 854 855 855 855 855 856 856 856 856 857 857 857 857 857 857 857
787 788 794 803 801 798 795 791 787 789 782 766 763 761 764 766 765 771 773 781 784 775 773 774 775 783 792 794 797 794 792 796 797 800 803 805 807 809 811 812 814 815 817 819 820 822 823 825 826 828 830 831 832 833 835 836 838 839 840 841 842 843 844 844 845 846 847 848 849 850 851 851 852 852 853 853 854 854 854 855 855 855 855 856 856 856 857 857 857 857 857 857 857 858 858 858 858
782 787 797 804 803 801 794 787 785 788 778 764 761 758 768 770 764 772 769 772 779 773 774 778 775 779 784 786 787 786 790 795 797 800 802 805 807 809 811 812 815 816 818 819 820 822 823 825 826 828 829 831 832 833 835 836 838 839 840 841 842 843 844 845 846 847 848 849 849 850 851 851 852 852 853 854 854 855 855 855 855 856 856 856 856 857 857 858 858 858 858 858 858 858 859 859 859
781 790 804 808 805 802 791 783 783 780 771 764 762 758 771 776 768 769 765 768 777 777 776 777 775 774 777 780 782 784 790 793 796 799 801 805 806 808 811 812 814 816 818 818 820 822 823 825 826 828 829 831 832 833 835 836 838 839 840 841 842 843 844 845 846 847 848 849 850 850 851 851 852 852 853 854 854 855 855 856 856 856 856 857 857 857 858 858 859 859 858 858 858 859 859 859 860
787 797 806 808 804 796 782 776 772 767 767 766 763 760 767 775 773 768 769 775 778 779 778 776 776 775 775 779 781 786 790 793 795 798 800 803 805 807 809 810 813 814 816 818 819 821 823 824 826 827 828 830 832 833 834 836 838 839 840 841 842 843 844 845 846 847 848 848 850 850 851 851 852 853 853 854 854 855 855 856 856 856 857 857 857 857 858 858 858 859 859 858 858 859 859 859 859
789 796 804 801 791 782 770 767 765 762 766 765 762 760 763 769 771 768 775 784 781 783 783 780 782 781 779 780 783 788 790 792 795 796 798 800 802 804 806 809 811 813 814 816 818 820 822 823 825 826 828 829 831 832 834 835 837 838 839 840 841 843 844 845 846 847 847 848 849 850 851 851 852 853 853 854 854 855 855 856 856 856 857 857 857 858 858 858 859 859 859 859 859 859 859 860 860
786 792 802 792 777 773 766 765 763 759 760 763 764 762 764 766 766 768 776 785 783 782 782 780 786 785 783 782 783 787 789 792 794 796 797 799 801 803 804 806 808 810 812 814 817 819 821 822 824 825 827 829 830 832 833 835 836 838 839 840 841 842 843 844 845 846 847 848 849 849 850 851 852 852 853 854 854 855 855 856 856 857 857 857 858 858 859 859 860 860 860 860 860 861 861 861 861
783 786 791 778 768 773 766 761 759 754 756 761 764 764 768 766 763 769 775 785 787 779 773 770 775 780 782 782 783 786 788 791 793 795 796 798 801 802 804 805 807 809 811 814 816 818 820 821 823 825 827 828 830 831 832 834 836 837 838 840 841 842 843 844 845 846 846 847 848 849 850 851 852 852 853 854 854 855 855 856 856 857 857 858 858 858 859 860 860 861 861 861 861 861 861 862 862
780 777 775 769 768 772 762 757 756 753 756 760 765 767 767 765 765 769 770 778 778 767 761 760 763 769 774 777 781 785 787 789 791 793 795 797 799 801 803 805 807 810 811 813 815 817 818 820 822 824 826 827 829 830 832 834 835 836 838 839 840 841 842 843 844 845 846 847 848 849 850 851 851 852 853 854 855 855 856 856 857 857 858 858 859 859 859 860 860 861 861 861 861 861 862 862 862
779 773 767 767 768 768 759 757 757 754 759 763 764 763 762 767 769 767 765 765 760 753 755 760 762 763 767 772 777 782 785 787 788 790 793 795 797 799 801 803 805 808 810 812 813 816 817 819 821 823 825 826 828 830 831 833 834 836 837 839 840 841 842 842 843 844 845 847 848 849 850 851 851 852 853 854 855 855 856 857 857 858 858 859 859 860 860 860 860 861 861 861 861 862 862 862 862
777 774 767 765 764 762 756 757 758 755 759 760 758 760 764 769 768 765 764 759 753 751 753 760 764 765 768 773 776 779 782 784 787 790 792 794 796 798 800 802 804 806 809 811 813 815 816 818 820 822 824 825 827 829 831 832 834 835 837 838 839 840 841 842 843 844 845 846 847 849 849 850 851 852 853 854 855 855 856 857 858 858 859 859 859 860 860 860 861 861 861 861 861 862 862 862 863
775 772 766 763 761 757 752 754 757 756 756 755 757 762 764 762 761 763 762 758 754 753 754 760 766 769 770 772 776 779 781 784 787 790 793 795 797 799 801 802 804 806 807 809 811 813 815 817 819 821 822 824 826 828 830 832 833 835 836 837 838 839 840 841 842 843 845 846 847 848 849 850 851 852 853 854 855 856 857 857 858 858 859 859 860 860 860 860 861 861 861 861 861 862 862 863 863
770 767 765 762 760 754 752 752 754 755 753 754 760 764 761 756 759 763 758 756 756 754 758 761 767 771 771 772 774 777 779 782 785 788 791 794 796 798 799 801 803 804 806 808 810 812 814 816 818 819 821 823 825 827 829 831 832 834 835 836 837 838 839 841 842 843 844 845 847 848 849 850 851 852 853 854 855 856 857 857 858 859 859 859 859 860 860 860 861 861 861 861 861 862 862 862 863
761 762 762 759 758 753 750 751 749 752 752 751 759 763 758 754 760 765 756 753 755 758 762 763 767 772 771 772 773 775 778 780 783 786 789 792 794 795 797 799 801 802 805 807 809 811 813 815 816 818 821 823 824 826 828 829 831 832 834 835 837 838 839 840 841 842 844 845 846 848 849 850 851 852 853 854 855 856 857 857 858 859 859 859 859 860 860 860 861 861 861 861 861 862 862 862 863
759 761 762 758 756 752 748 749 746 748 752 748 751 758 757 758 761 759 753 752 754 760 765 765 768 772 771 772 773 775 777 780 783 784 786 787 789 791 794 796 798 801 803 805 807 810 812 813 815 817 819 822 823 825 826 828 830 831 833 834 836 837 838 839 841 842 843 844 846 847 848 849 851 852 853 854 855 856 856 857 858 858 859 859 859 860 860 860 860 861 861 861 861 861 862 862 862
759 761 767 762 756 754 746 746 743 745 751 743 748 764 767 764 758 751 751 753 755 760 766 767 769 771 772 773 773 775 776 779 781 782 783 784 786 788 790 793 796 799 801 804 807 808 810 812 814 816 818 820 822 823 825 827 828 830 832 833 835 836 838 839 840 841 842 844 845 846 848 849 850 852 853 854 854 855 856 857 857 858 858 859 859 859 859 860 860 860 861 861 861 861 861 862 862
761 761 767 767 766 760 744 742 741 744 747 738 750 775 773 760 751 748 750 752 757 764 766 767 769 770 771 773 773 774 775 776 778 780 782 783 785 786 788 792 794 797 800 803 805 806 809 811 813 815 817 819 820 822 824 825 827 829 830 832 834 835 837 838 839 841 842 843 845 846 848 849 850 851 852 853 854 855 855 856 856 857 858 858 858 859 859 859 860 860 860 860 861 861 861 862 862
764 766 767 770 777 765 743 741 743 747 746 734 751 774 765 752 750 748 748 750 755 763 766 766 768 769 770 771 773 774 773 774 776 778 780 782 784 786 788 790 793 796 798 800 802 804 807 809 811 813 815 817 819 821 822 824 826 827 829 831 832 834 836 837 838 840 841 842 844 845 847 848 849 851 852 852 853 854 854 855 855 856 857 858 858 858 859 859 859 860 860 860 861 861 862 862 862
768 777 779 775 777 766 747 741 741 746 745 737 752 769 758 747 747 745 746 748 753 760 764 765 766 768 769 769 771 773 773 773 775 777 779 781 783 784 786 788 791 793 796 798 800 803 806 807 810 811 813 815 817 819 821 823 825 826 828 830 831 833 835 836 838 839 841 842 843 845 846 847 848 850 851 852 852 853 853 854 855 855 856 857 857 858 858 859 859 859 860 860 860 861 861 862 862
772 780 785 780 776 772 759 745 737 739 745 744 751 759 753 745 743 743 744 747 752 759 762 764 765 767 768 768 769 772 773 773 774 775 776 779 780 782 784 786 788 791 794 796 798 801 803 805 808 810 811 814 816 818 820 822 824 826 827 829 831 832 834 835 836 838 840 841 842 844 845 846 847 849 849 850 851 852 853 853 854 855 855 856 856 857 858 858 859 859 859 860 860 861 861 861 862
779 779 782 778 774 775 768 754 741 738 746 750 750 752 749 745 744 743 743 746 751 757 761 762 763 765 767 767 768 770 772 772 770 770 772 775 777 780 783 785 787 790 792 794 797 799 801 804 806 808 810 813 815 817 819 821 823 825 827 828 830 831 833 834 836 837 838 840 841 843 844 845 846 847 848 849 850 851 852 852 853 854 854 855 855 856 857 858 858 859 859 859 860 860 861 861 861
781 782 782 780 773 772 769 760 748 742 747 750 752 754 749 747 747 744 742 743 749 753 756 759 761 763 766 766 766 767 769 768 766 766 769 772 775 778 781 784 787 789 791 793 795 798 800 802 804 807 809 811 814 816 818 821 823 825 826 827 829 830 832 833 835 836 837 839 840 841 843 844 845 846 847 848 848 850 850 851 852 853 853 854 854 855 856 857 858 858 859 859 860 860 860 861 861
772 774 776 777 773 769 763 757 748 743 751 752 752 754 748 748 750 746 743 742 747 752 754 758 761 762 765 766 765 765 766 764 762 765 768 771 773 776 779 782 785 787 789 792 794 796 798 800 803 805 807 809 812 814 817 819 821 823 824 826 827 828 830 832 833 835 836 837 839 840 842 843 844 844 845 846 847 848 849 850 851 852 852 853 853 854 855 856 857 858 858 859 859 859 860 860 860
764 769 771 772 773 769 758 754 747 742 753 752 746 749 747 747 750 745 744 744 748 753 755 758 759 760 762 763 763 761 761 760 762 766 768 770 773 775 779 781 784 786 788 790 792 794 795 798 800 801 804 807 809 811 813 815 817 819 821 823 824 826 829 830 831 833 834 836 837 839 840 841 842 843 844 845 846 847 848 849 850 851 851 852 852 853 854 855 856 857 857 858 858 859 859 859 860
763 767 771 772 773 767 755 753 747 741 753 753 744 748 746 744 748 746 745 747 747 748 752 754 754 756 757 759 760 758 758 760 763 765 766 769 772 774 777 779 781 783 784 787 788 790 793 795 797 799 802 804 806 808 810 812 814 816 818 820 822 825 826 828 829 831 832 834 836 837 839 840 841 841 842 843 845 846 847 848 848 849 850 851 851 852 854 854 855 856 857 857 858 858 859 859 860
763 766 771 774 769 764 756 750 746 744 753 753 745 749 746 739 743 745 745 745 742 740 741 743 745 750 753 754 755 755 757 761 762 762 763 765 768 771 774 776 778 779 781 784 786 788 791 793 795 797 799 801 803 805 807 809 811 814 817 819 821 823 824 826 827 829 831 833 834 835 837 838 839 839 841 842 843 845 846 847 847 848 849 849 850 851 852 853 854 855 856 856 857 857 858 859 860
762 764 771 771 763 766 764 753 747 745 748 749 747 750 748 743 744 743 741 740 741 741 740 740 741 744 746 746 748 750 754 757 758 759 760 762 765 768 770 771 773 776 778 780 783 786 787 789 791 793 796 797 800 802 804 807 811 814 816 818 820 822 823 825 827 828 829 831 832 833 834 836 837 838 839 841 842 843 844 845 846 847 847 848 849 850 851 852 853 854 855 855 856 857 858 859 859
760 760 764 765 761 763 762 756 750 746 745 743 746 756 752 747 750 745 739 739 741 741 743 744 742 742 744 745 747 749 750 752 754 756 756 758 760 762 764 766 770 772 774 775 778 780 782 784 786 788 791 794 796 799 802 806 809 813 815 818 820 821 822 823 824 825 827 828 830 831 832 834 835 836 838 840 841 842 843 844 845 846 846 847 848 849 850 851 852 853 854 855 855 856 857 858 859
761 755 753 756 759 759 758 757 756 759 761 745 747 768 763 747 749 747 741 743 743 740 741 742 741 742 745 747 747 747 747 749 751 752 752 753 755 757 760 763 766 768 769 770 772 775 777 779 782 785 788 791 793 796 800 804 806 809 811 813 815 817 819 819 820 822 824 826 827 829 831 832 833 835 836 838 839 840 842 843 844 844 845 846 847 848 849 850 851 852 853 854 855 856 857 858 858
762 748 743 750 754 756 757 757 761 769 769 748 744 768 770 753 747 744 742 745 743 740 740 739 739 741 742 743 743 743 744 745 748 750 751 752 753 754 757 759 761 762 762 765 768 771 774 776 779 782 785 787 790 794 797 800 802 805 807 808 810 813 814 815 817 820 822 824 826 827 829 830 832 833 835 836 838 839 840 841 842 843 844 844 845 847 848 849 850 851 852 853 854 855 856 857 857
757 739 738 747 751 755 756 757 763 762 759 751 744 755 768 761 745 738 741 746 747 743 741 738 736 737 737 738 738 738 739 740 743 746 748 749 750 751 752 753 754 755 756 761 764 767 769 772 775 778 781 784 787 791 794 796 798 800 803 805 807 809 810 812 815 818 820 822 824 826 827 829 830 831 833 834 836 837 838 839 841 841 842 843 844 845 846 847 849 850 851 852 853 854 855 855 856
745 734 736 743 746 750 751 755 760 757 760 764 751 750 768 765 741 734 740 746 749 745 739 737 734 733 732 733 734 733 734 735 737 740 742 743 744 745 747 748 749 750 753 756 758 761 764 767 771 774 777 780 783 787 790 792 795 797 800 803 804 806 808 811 814 816 818 820 821 823 825 827 828 830 831 833 834 835 836 838 839 840 841 842 842 843 845 846 847 848 849 850 851 852 853 854 855
736 731 736 740 743 746 749 755 757 759 768 769 754 751 767 764 740 736 746 747 744 738 732 730 727 726 727 727 728 729 730 732 733 735 737 738 739 739 741 744 746 748 751 753 754 756 760 763 767 770 772 775 779 782 785 788 791 794 797 799 800 803 806 809 812 813 815 817 819 821 822 824 826 828 829 831 832 833 834 836 837 838 839 840 841 842 843 844 845 846 847 849 850 851 852 852 853
730 733 740 745 746 746 751 753 755 768 772 759 749 747 760 764 742 733 738 734 729 729 728 726 723 722 722 721 723 724 725 727 729 731 732 734 736 737 739 742 744 748 751 753 754 756 758 761 764 766 768 772 775 778 781 784 787 790 792 794 796 799 803 806 808 810 812 814 816 817 819 822 824 826 827 829 830 831 832 833 835 836 837 838 839 840 841 842 844 845 846 847 848 849 850 851 851
729 736 744 754 758 755 759 760 763 777 772 749 740 741 754 761 741 724 722 715 713 718 719 719 718 716 714 714 715 716 719 721 724 728 729 731 734 736 739 740 742 747 750 752 753 755 757 759 761 763 765 768 771 775 777 780 784 786 788 791 793 796 800 802 804 806 808 810 812 814 817 819 821 823 825 826 827 828 830 831 832 834 835 836 837 838 839 840 842 843 844 845 846 847 848 849 850
733 740 748 766 777 775 776 776 772 775 766 745 737 743 751 745 725 713 712 709 707 706 705 706 706 706 705 706 707 709 712 716 719 722 724 727 729 730 733 736 738 743 746 747 750 752 754 755 757 759 761 764 768 771 774 777 779 782 784 787 789 792 796 799 801 803 805 807 810 812 814 816 818 820 822 823 824 826 827 829 830 831 833 834 835 836 837 838 840 841 842 843 844 846 847 848 849
736 741 750 767 781 788 791 783 774 769 759 743 738 745 745 731 714 703 701 701 700 696 696 695 695 696 697 696 697 701 705 709 712 715 719 720 721 723 726 729 733 736 739 743 746 748 750 752 754 755 757 760 764 767 770 773 775 778 780 783 786 789 792 795 797 799 802 805 807 809 811 813 814 816 818 820 821 824 825 826 828 829 830 832 833 834 835 837 838 839 840 841 843 844 845 846 847
733 732 740 753 760 772 781 777 772 767 756 748 748 747 737 723 710 695 689 689 688 689 689 687 688 687 687 688 692 698 701 703 706 709 712 713 713 717 721 723 727 730 733 737 741 744 746 748 750 751 753 756 760 763 766 769 772 774 777 780 783 785 788 791 794 796 799 801 804 806 808 810 811 813 814 816 819 821 823 824 826 827 828 830 831 832 833 835 836 837 839 840 841 843 844 845 846
729 725 735 744 738 743 756 758 755 757 758 756 751 739 721 710 701 690 688 688 685 687 686 686 688 684 684 688 692 696 698 697 701 703 705 706 708 712 716 719 722 724 728 731 734 738 741 743 745 747 749 752 755 759 762 765 768 771 774 777 779 782 785 788 790 793 795 798 800 803 805 807 809 810 812 814 816 818 820 822 823 824 826 827 829 830 831 832 834 835 836 838 839 841 842 843 844
728 729 732 727 719 728 748 755 747 750 765 759 743 732 717 709 701 688 688 692 688 688 688 687 687 682 683 688 689 691 692 692 695 695 696 699 702 707 710 713 716 719 723 726 728 731 734 737 741 744 746 749 752 755 758 761 765 768 771 773 776 779 782 784 786 789 792 795 797 799 801 804 806 808 809 811 812 815 817 819 821 822 823 825 826 827 829 830 832 833 834 836 837 839 840 841 842
721 729 720 713 719 726 740 757 757 758 769 757 737 732 725 720 712 694 690 694 691 689 689 686 684 682 683 684 684 685 684 685 688 688 691 694 697 701 703 706 710 713 716 718 721 724 728 732 736 739 742 744 746 749 753 757 760 764 767 769 773 775 778 781 783 786 790 792 794 796 798 800 802 804 806 808 809 811 814 816 818 819 821 822 824 825 826 828 829 831 832 834 836 837 838 839 840
704 710 703 710 733 739 740 754 761 765 771 756 739 733 725 718 711 698 695 694 689 688 688 686 685 683 681 680 679 679 679 682 684 685 688 690 692 694 696 700 704 707 711 713 716 720 724 728 731 734 736 738 742 746 750 754 757 760 762 765 769 772 775 778 781 784 786 788 790 792 794 796 798 801 803 804 806 807 810 813 814 816 818 819 821 822 824 825 827 828 830 832 834 835 836 837 838
697 702 703 705 719 729 734 740 743 754 764 757 747 736 718 703 695 690 692 688 683 685 686 685 682 677 675 674 673 673 675 677 678 678 680 682 684 686 689 693 696 701 705 708 712 717 721 724 727 729 732 735 740 743 746 750 753 756 759 762 765 768 771 775 777 780 782 783 786 788 790 792 795 797 799 801 802 804 806 809 811 813 814 816 818 820 821 823 824 825 827 830 831 833 834 835 836
705 711 713 711 711 714 724 729 725 734 749 753 753 741 710 688 682 678 678 677 675 678 678 678 676 671 669 668 665 666 669 671 671 671 673 675 677 679 682 687 690 695 700 704 709 712 715 718 721 724 727 731 735 738 741 745 748 752 755 758 761 764 768 771 773 776 777 779 782 784 786 789 791 793 795 797 799 800 802 805 807 809 811 813 814 816 818 820 821 823 825 827 829 831 832 833 834
696 705 707 708 711 714 729 738 724 719 730 735 743 738 703 678 675 671 667 668 667 669 671 671 670 667 665 663 660 660 663 665 665 665 667 669 671 674 677 682 687 692 696 701 704 707 710 713 716 719 723 726 728 731 735 739 744 748 751 754 757 760 763 766 769 771 773 776 778 780 783 785 787 789 791 793 795 797 799 801 803 805 807 809 811 813 815 817 818 820 822 824 826 828 829 830 832